Location: Newark
(41.1500°S, 172.6000°E)
Time: 03:31:44
(UTC+00:00)

ISS - Visible Passes

Search period start: 22 September 2019 00:00
Search period end: 02 October 2019 00:00
Orbit: 411 x 421 km, 51.6° (Epoch: 22 September)

Date Brightness Start Highest point End Pass type
(mag) Time Alt. Az. Time Alt. Az. Time Alt. Az.
23 Sep -1.6 17:43:52 10° NNW 17:46:44 25° NE 17:49:37 10° ESE visible
24 Sep -0.9 16:56:25 10° NNE 16:58:25 15° NE 17:00:26 10° E visible
25 Sep -3.5 17:42:53 10° NW 17:46:17 72° NE 17:49:43 10° ESE visible
26 Sep -2.6 16:55:37 17° NNW 16:57:49 40° NE 17:01:05 10° ESE visible
27 Sep -1.8 16:09:19 23° NE 16:09:26 23° NE 16:12:14 10° E visible
28 Sep -3.7 16:55:48 29° WNW 16:57:24 72° SW 17:00:52 10° SE visible
29 Sep -3.2 16:09:17 58° E 16:09:17 58° E 16:12:17 10° ESE visible
30 Sep -0.8 15:22:41 16° ESE 15:22:41 16° ESE 15:23:35 10° ESE visible
30 Sep -2.6 16:55:35 21° WSW 16:57:09 32° SSW 17:00:18 10° SE visible
01 Oct -2.9 16:08:54 44° S 16:08:54 44° S 16:11:50 10° SE visible
